| time (UTC) | temp F | wind direction | speed knots | gust knots | rain 1hr in | rain 24hr in | rain mn in | humidity % | barometer mb |
| 20260508122003 | 54 | 302 | 0.9 | 5.2 | 0.00 | 0.68 | 0.27 | 78 | 1012.9 |
| 20260508121503 | 53 | 76 | 0.9 | 2.6 | 0.00 | 0.68 | 0.27 | 78 | 1013.0 |
| 20260508121003 | 53 | 79 | 0.9 | 2.6 | 0.00 | 0.68 | 0.27 | 78 | 1013.0 |
| 20260508120503 | 52 | 53 | 1.7 | 5.2 | 0.00 | 0.68 | 0.27 | 79 | 1013.2 |
| 20260508120004 | 53 | 13 | 1.7 | 5.2 | 0.00 | 0.68 | 0.27 | 80 | 1013.5 |
| 20260508115524 | 53 | 32 | 1.7 | 3.5 | 0.00 | 0.68 | 0.27 | 81 | 1013.3 |
| 20260508115024 | 52 | 37 | 1.7 | 3.5 | 0.00 | 0.68 | 0.27 | 80 | 1013.5 |
| 20260508114503 | 52 | 43 | 1.7 | 3.5 | 0.00 | 0.68 | 0.27 | 83 | 1013.3 |
| 20260508114003 | 52 | 30 | 1.7 | 3.5 | 0.00 | 0.68 | 0.27 | 84 | 1013.3 |
| 20260508113503 | 51 | 10 | 1.7 | 3.5 | 0.00 | 0.68 | 0.27 | 84 | 1013.4 |
| 20260508113004 | 51 | 9 | 1.7 | 3.5 | 0.00 | 0.68 | 0.27 | 82 | 1013.4 |
| 20260508112503 | 51 | 356 | 1.7 | 2.6 | 0.00 | 0.68 | 0.27 | 84 | 1013.5 |
| 20260508112004 | 51 | 343 | 1.7 | 3.5 | 0.00 | 0.68 | 0.27 | 87 | 1013.7 |
| 20260508111503 | 51 | 343 | 0.9 | 3.5 | 0.00 | 0.68 | 0.27 | 88 | 1013.6 |
| 20260508111003 | 51 | 353 | 0.9 | 1.7 | 0.00 | 0.68 | 0.27 | 87 | 1013.6 |
| 20260508110503 | 50 | 57 | 0.0 | 1.7 | 0.00 | 0.68 | 0.27 | 87 | 1013.6 |
| 20260508110024 | 51 | 138 | 0.0 | 0.9 | 0.00 | 0.68 | 0.27 | 86 | 1013.6 |
| 20260508105503 | 50 | 211 | 0.0 | 0.9 | 0.00 | 0.68 | 0.27 | 88 | 1013.8 |
| 20260508105003 | 50 | 254 | 0.0 | 1.7 | 0.00 | 0.68 | 0.27 | 89 | 1013.8 |
| 20260508104503 | 50 | 231 | 0.9 | 2.6 | 0.01 | 0.68 | 0.27 | 87 | 1013.8 |
| 20260508104003 | 50 | 191 | 0.9 | 2.6 | 0.01 | 0.68 | 0.27 | 87 | 1013.8 |
| 20260508103503 | 49 | 158 | 0.9 | 2.6 | 0.02 | 0.68 | 0.27 | 91 | 1013.6 |
| 20260508103024 | 50 | 148 | 0.9 | 2.6 | 0.02 | 0.68 | 0.27 | 90 | 1013.7 |
| 20260508102524 | 50 | 141 | 0.9 | 2.6 | 0.03 | 0.68 | 0.27 | 91 | 1013.9 |
| 20260508102003 | 50 | 225 | 0.9 | 3.5 | 0.06 | 0.68 | 0.27 | 92 | 1013.9 |
| 20260508101525 | 50 | 228 | 1.7 | 6.1 | 0.07 | 0.68 | 0.27 | 92 | 1013.9 |
| 20260508101003 | 50 | 231 | 2.6 | 7.8 | 0.07 | 0.68 | 0.27 | 92 | 1013.8 |
| 20260508100503 | 50 | 238 | 3.5 | 7.8 | 0.07 | 0.68 | 0.27 | 92 | 1013.8 |
| 20260508100004 | 50 | 255 | 3.5 | 6.1 | 0.07 | 0.68 | 0.27 | 92 | 1013.8 |
| 20260508095503 | 50 | 262 | 2.6 | 6.1 | 0.07 | 0.68 | 0.26 | 94 | 1013.7 |
| 20260508095003 | 50 | 234 | 1.7 | 5.2 | 0.07 | 0.68 | 0.26 | 96 | 1013.8 |
| 20260508094524 | 50 | 221 | 1.7 | 6.1 | 0.07 | 0.67 | 0.26 | 96 | 1013.9 |
| 20260508094003 | 50 | 225 | 2.6 | 7.8 | 0.08 | 0.67 | 0.26 | 96 | 1013.9 |
| 20260508093503 | 50 | 224 | 2.6 | 6.1 | 0.10 | 0.66 | 0.25 | 96 | 1014.0 |
| 20260508093003 | 51 | 196 | 2.6 | 7.0 | 0.09 | 0.66 | 0.24 | 96 | 1013.7 |
| 20260508092503 | 51 | 176 | 2.6 | 7.0 | 0.09 | 0.65 | 0.24 | 95 | 1013.8 |
| 20260508092003 | 51 | 163 | 0.9 | 7.0 | 0.06 | 0.62 | 0.20 | 95 | 1013.7 |
| 20260508091503 | 51 | 141 | 0.9 | 3.5 | 0.05 | 0.61 | 0.20 | 94 | 1013.1 |
| 20260508091003 | 51 | 138 | 0.9 | 3.5 | 0.05 | 0.61 | 0.20 | 95 | 1012.9 |
| 20260508090503 | 51 | 116 | 0.9 | 2.6 | 0.04 | 0.61 | 0.19 | 95 | 1013.0 |
| 20260508090024 | 50 | 82 | 0.9 | 2.6 | 0.04 | 0.61 | 0.19 | 94 | 1013.2 |
| 20260508085503 | 50 | 80 | 0.9 | 2.6 | 0.04 | 0.60 | 0.19 | 95 | 1013.0 |
| 20260508085003 | 50 | 56 | 0.9 | 3.5 | 0.04 | 0.60 | 0.19 | 96 | 1013.1 |
| 20260508084524 | 50 | 32 | 1.7 | 6.1 | 0.04 | 0.60 | 0.19 | 96 | 1013.1 |
| 20260508084003 | 50 | 43 | 1.7 | 6.1 | 0.03 | 0.59 | 0.18 | 96 | 1012.8 |
| 20260508083524 | 50 | 80 | 0.9 | 3.5 | 0.01 | 0.56 | 0.15 | 96 | 1013.4 |
| 20260508083003 | 50 | 85 | 0.9 | 1.7 | 0.02 | 0.56 | 0.15 | 97 | 1013.3 |
| 20260508082524 | 50 | 64 | 0.9 | 1.7 | 0.04 | 0.56 | 0.15 | 98 | 1013.2 |
| 20260508082003 | 50 | 70 | 0.9 | 2.6 | 0.04 | 0.56 | 0.15 | 99 | 1013.0 |
| 20260508081504 | 50 | 37 | 0.9 | 2.6 | 0.04 | 0.56 | 0.15 | 99 | 1013.1 |
| 20260508081003 | 50 | 19 | 0.9 | 2.6 | 0.06 | 0.56 | 0.15 | 99 | 1013.2 |
| 20260508080503 | 50 | 36 | 0.9 | 2.6 | 0.07 | 0.56 | 0.15 | 99 | 1013.0 |
| 20260508080004 | 50 | 68 | 0.9 | 2.6 | 0.08 | 0.56 | 0.15 | 99 | 1013.0 |
| 20260508075503 | 50 | 45 | 0.9 | 3.5 | 0.10 | 0.56 | 0.15 | 99 | 1013.0 |
| 20260508075003 | 49 | 323 | 1.7 | 3.5 | 0.11 | 0.56 | 0.15 | 99 | 1013.1 |
| 20260508074503 | 49 | 311 | 2.6 | 5.2 | 0.12 | 0.56 | 0.15 | 99 | 1012.7 |
| 20260508074003 | 49 | 314 | 2.6 | 5.2 | 0.12 | 0.56 | 0.15 | 99 | 1012.9 |
| 20260508073503 | 49 | 271 | 1.7 | 2.6 | 0.12 | 0.56 | 0.14 | 99 | 1013.2 |
| 20260508073003 | 49 | 243 | 1.7 | 5.2 | 0.10 | 0.54 | 0.13 | 99 | 1013.4 |
| 20260508072504 | 50 | 234 | 1.7 | 5.2 | 0.09 | 0.53 | 0.11 | 99 | 1013.5 |
| 20260508072024 | 50 | 241 | 1.7 | 5.2 | 0.09 | 0.52 | 0.11 | 99 | 1013.4 |
| 20260508071503 | 50 | 239 | 1.7 | 3.5 | 0.09 | 0.52 | 0.11 | 99 | 1013.3 |
| 20260508071003 | 50 | 222 | 0.9 | 2.6 | 0.07 | 0.50 | 0.09 | 99 | 1013.4 |
| 20260508070503 | 50 | 223 | 0.9 | 2.6 | 0.06 | 0.49 | 0.08 | 99 | 1013.3 |
| 20260508070004 | 50 | 222 | 0.9 | 2.6 | 0.05 | 0.48 | 0.07 | 99 | 1013.1 |
| 20260508065503 | 50 | 215 | 0.9 | 2.6 | 0.03 | 0.46 | 0.05 | 99 | 1013.2 |
| 20260508065003 | 50 | 207 | 0.9 | 2.6 | 0.02 | 0.45 | 0.04 | 99 | 1013.1 |
| 20260508064503 | 50 | 194 | 0.0 | 2.6 | 0.01 | 0.44 | 0.02 | 99 | 1012.9 |
| 20260508064003 | 50 | 184 | 0.0 | 2.6 | 0.01 | 0.44 | 0.02 | 99 | 1012.7 |
| 20260508063524 | 50 | 205 | 0.0 | 0.9 | 0.01 | 0.44 | 0.02 | 99 | 1012.8 |
| 20260508063003 | 50 | 255 | 0.0 | 1.7 | 0.01 | 0.44 | 0.02 | 99 | 1012.6 |
| 20260508062503 | 50 | 252 | 0.0 | 1.7 | 0.00 | 0.43 | 0.02 | 99 | 1012.4 |
| 20260508062004 | 50 | 226 | 0.0 | 1.7 | 0.00 | 0.43 | 0.02 | 99 | 1012.5 |
| 20260508061503 | 50 | 227 | 0.9 | 3.5 | 0.00 | 0.43 | 0.02 | 99 | 1012.5 |
| 20260508061003 | 50 | 233 | 1.7 | 5.2 | 0.00 | 0.43 | 0.02 | 99 | 1012.2 |
| 20260508060503 | 50 | 231 | 1.7 | 5.2 | 0.00 | 0.43 | 0.02 | 99 | 1012.4 |
| 20260508060004 | 50 | 214 | 0.9 | 2.6 | 0.00 | 0.43 | 0.02 | 99 | 1012.2 |
| 20260508055503 | 50 | 210 | 0.9 | 1.7 | 0.00 | 0.43 | 0.02 | 99 | 1012.1 |
| 20260508055003 | 50 | 218 | 0.9 | 1.7 | 0.00 | 0.43 | 0.02 | 99 | 1011.9 |
| 20260508054503 | 50 | 228 | 0.9 | 1.7 | 0.00 | 0.43 | 0.02 | 99 | 1011.8 |
| 20260508054024 | 49 | 231 | 0.9 | 1.7 | 0.00 | 0.43 | 0.02 | 99 | 1012.0 |
| 20260508053503 | 49 | 213 | 0.9 | 1.7 | 0.00 | 0.43 | 0.02 | 99 | 1011.9 |
| 20260508053024 | 49 | 89 | 0.0 | 0.9 | 0.00 | 0.43 | 0.02 | 99 | 1011.8 |
| 20260508052503 | 49 | 88 | 0.0 | 0.9 | 0.00 | 0.43 | 0.02 | 99 | 1011.8 |
| 20260508052024 | 49 | 0 | 0.0 | 0.0 | 0.00 | 0.43 | 0.02 | 99 | 1011.8 |
| 20260508051503 | 49 | 16 | 0.0 | 1.7 | 0.00 | 0.43 | 0.02 | 99 | 1011.6 |
| 20260508051003 | 49 | 320 | 0.0 | 1.7 | 0.00 | 0.43 | 0.02 | 99 | 1011.5 |
| 20260508050503 | 49 | 303 | 0.0 | 0.9 | 0.00 | 0.43 | 0.02 | 99 | 1011.5 |
| 20260508050004 | 49 | 0 | 0.0 | 0.0 | 0.00 | 0.43 | 0.02 | 99 | 1011.7 |
| 20260508045503 | 49 | 0 | 0.0 | 0.0 | 0.00 | 0.43 | 0.02 | 99 | 1011.7 |
| 20260508045003 | 49 | 301 | 0.0 | 1.7 | 0.00 | 0.43 | 0.02 | 99 | 1011.8 |
| 20260508044524 | 49 | 288 | 0.0 | 1.7 | 0.00 | 0.43 | 0.02 | 99 | 1011.4 |
| 20260508044003 | 49 | 276 | 0.0 | 0.9 | 0.00 | 0.43 | 0.02 | 99 | 1011.4 |
| 20260508043504 | 49 | 213 | 0.0 | 0.9 | 0.00 | 0.43 | 0.02 | 99 | 1011.7 |
| 20260508043004 | 50 | 213 | 0.0 | 0.9 | 0.00 | 0.43 | 0.02 | 99 | 1011.5 |
| 20260508042525 | 50 | 0 | 0.0 | 0.0 | 0.00 | 0.43 | 0.02 | 99 | 1011.6 |
| 20260508042004 | 50 | 0 | 0.0 | 0.0 | 0.00 | 0.43 | 0.02 | 99 | 1011.7 |
| 20260508041504 | 50 | 213 | 0.0 | 0.9 | 0.00 | 0.43 | 0.02 | 99 | 1011.7 |
| 20260508041004 | 50 | 159 | 0.0 | 1.7 | 0.00 | 0.43 | 0.02 | 99 | 1011.7 |
| 20260508040524 | 50 | 150 | 0.0 | 1.7 | 0.00 | 0.43 | 0.02 | 99 | 1011.7 |
| 20260508040004 | 49 | 0 | 0.0 | 0.0 | 0.00 | 0.43 | 0.02 | 99 | 1011.8 |
| 20260508035503 | 50 | 0 | 0.0 | 0.0 | 0.00 | 0.43 | 0.02 | 99 | 1011.7 |
| 20260508035004 | 50 | 193 | 0.0 | 0.9 | 0.00 | 0.43 | 0.02 | 99 | 1011.6 |
| 20260508034503 | 49 | 209 | 0.0 | 1.7 | 0.00 | 0.43 | 0.02 | 99 | 1011.8 |
| 20260508034003 | 49 | 213 | 0.0 | 1.7 | 0.00 | 0.43 | 0.02 | 99 | 1012.0 |
| 20260508033503 | 49 | 0 | 0.0 | 0.0 | 0.00 | 0.43 | 0.02 | 99 | 1011.8 |
| 20260508033003 | 49 | 178 | 0.0 | 0.9 | 0.00 | 0.43 | 0.02 | 99 | 1011.9 |
| 20260508032503 | 49 | 178 | 0.0 | 0.9 | 0.00 | 0.43 | 0.02 | 99 | 1011.8 |
| 20260508032003 | 49 | 0 | 0.0 | 0.0 | 0.00 | 0.43 | 0.02 | 99 | 1012.1 |
| 20260508031503 | 49 | 0 | 0.0 | 0.0 | 0.00 | 0.43 | 0.02 | 99 | 1011.9 |
| 20260508031003 | 49 | 237 | 0.0 | 0.9 | 0.00 | 0.43 | 0.02 | 99 | 1012.1 |
| 20260508030503 | 49 | 234 | 0.9 | 1.7 | 0.00 | 0.43 | 0.02 | 99 | 1012.0 |
| 20260508030004 | 49 | 234 | 0.9 | 2.6 | 0.00 | 0.43 | 0.02 | 99 | 1012.2 |
| 20260508025504 | 49 | 236 | 0.0 | 2.6 | 0.00 | 0.43 | 0.02 | 99 | 1012.2 |
| 20260508025004 | 49 | 0 | 0.0 | 0.0 | 0.00 | 0.43 | 0.02 | 99 | 1012.1 |
| 20260508024504 | 49 | 0 | 0.0 | 0.0 | 0.00 | 0.43 | 0.02 | 99 | 1012.2 |
| 20260508024004 | 49 | 273 | 0.0 | 0.9 | 0.00 | 0.43 | 0.02 | 99 | 1012.5 |
| 20260508023525 | 49 | 267 | 0.0 | 0.9 | 0.00 | 0.43 | 0.02 | 99 | 1012.4 |
| 20260508023004 | 49 | 267 | 0.0 | 0.9 | 0.00 | 0.43 | 0.02 | 98 | 1012.4 |
| 20260508022504 | 50 | 0 | 0.0 | 0.0 | 0.00 | 0.43 | 0.02 | 98 | 1012.5 |
| 20260508022004 | 50 | 247 | 0.0 | 0.9 | 0.00 | 0.43 | 0.02 | 98 | 1012.6 |
| 20260508021504 | 50 | 247 | 0.0 | 0.9 | 0.00 | 0.43 | 0.02 | 98 | 1012.5 |
| 20260508021004 | 50 | 247 | 0.0 | 0.9 | 0.00 | 0.43 | 0.02 | 98 | 1012.5 |
| 20260508020504 | 50 | 11 | 0.0 | 2.6 | 0.00 | 0.43 | 0.02 | 98 | 1012.7 |
| 20260508020005 | 50 | 17 | 0.9 | 2.6 | 0.00 | 0.43 | 0.02 | 98 | 1012.4 |
| 20260508015504 | 50 | 54 | 0.0 | 0.9 | 0.00 | 0.43 | 0.02 | 98 | 1012.6 |
| 20260508015004 | 51 | 85 | 0.0 | 1.7 | 0.00 | 0.43 | 0.02 | 98 | 1012.9 |
| 20260508014504 | 51 | 86 | 0.0 | 1.7 | 0.00 | 0.43 | 0.02 | 98 | 1012.9 |
| 20260508014004 | 51 | 142 | 0.0 | 0.9 | 0.01 | 0.43 | 0.02 | 98 | 1012.9 |
| 20260508013504 | 51 | 0 | 0.0 | 0.0 | 0.01 | 0.43 | 0.02 | 98 | 1013.0 |
| 20260508013004 | 51 | 137 | 0.0 | 1.7 | 0.01 | 0.43 | 0.02 | 98 | 1012.9 |
| 20260508012504 | 51 | 142 | 0.0 | 1.7 | 0.02 | 0.43 | 0.02 | 98 | 1013.4 |
| 20260508012004 | 51 | 134 | 0.0 | 1.7 | 0.02 | 0.43 | 0.02 | 98 | 1013.2 |
| 20260508011504 | 51 | 126 | 0.0 | 1.7 | 0.02 | 0.43 | 0.02 | 99 | 1013.4 |
| 20260508011004 | 51 | 88 | 0.9 | 2.6 | 0.02 | 0.43 | 0.02 | 98 | 1013.3 |
| 20260508010504 | 51 | 66 | 0.9 | 2.6 | 0.02 | 0.43 | 0.02 | 99 | 1013.2 |
| 20260508010025 | 51 | 41 | 0.9 | 3.5 | 0.02 | 0.43 | 0.02 | 98 | 1013.4 |
| 20260508005504 | 51 | 18 | 1.7 | 6.1 | 0.02 | 0.43 | 0.02 | 99 | 1013.3 |
| 20260508005004 | 51 | 343 | 2.6 | 6.1 | 0.01 | 0.43 | 0.01 | 99 | 1013.3 |
| 20260508004525 | 51 | 307 | 3.5 | 7.0 | 0.01 | 0.43 | 0.01 | 99 | 1013.4 |
| 20260508004025 | 51 | 294 | 3.5 | 7.0 | 0.01 | 0.42 | 0.01 | 99 | 1013.5 |
| 20260508003504 | 51 | 263 | 1.7 | 3.5 | 0.01 | 0.42 | 0.01 | 99 | 1013.8 |
| 20260508003005 | 51 | 242 | 1.7 | 3.5 | 0.00 | 0.42 | 0.00 | 98 | 1014.1 |
| 20260508002504 | 51 | 232 | 0.9 | 2.6 | 0.00 | 0.41 | 0.00 | 98 | 1014.3 |
| 20260508002004 | 50 | 228 | 0.9 | 2.6 | 0.00 | 0.41 | 0.00 | 98 | 1014.3 |
| 20260508001525 | 50 | 206 | 0.9 | 3.5 | 0.00 | 0.41 | 0.00 | 98 | 1014.5 |
| 20260508001025 | 50 | 183 | 0.9 | 3.5 | 0.00 | 0.41 | 0.00 | 98 | 1014.3 |
| 20260508000525 | 50 | 163 | 0.9 | 3.5 | 0.00 | 0.41 | 0.00 | 98 | 1014.3 |
| 20260508000004 | 50 | 161 | 0.0 | 2.6 | 0.00 | 0.41 | 0.00 | 98 | 1014.0 |
| 20260507235504 | 51 | 160 | 0.0 | 2.6 | 0.00 | 0.41 | 0.41 | 98 | 1013.8 |
| 20260507235004 | 50 | 160 | 0.0 | 1.7 | 0.00 | 0.41 | 0.41 | 98 | 1013.9 |
| 20260507234504 | 50 | 115 | 0.0 | 0.9 | 0.00 | 0.41 | 0.41 | 98 | 1013.6 |
| 20260507234004 | 50 | 114 | 0.0 | 0.9 | 0.00 | 0.41 | 0.41 | 98 | 1013.7 |
| 20260507233504 | 50 | 114 | 0.0 | 0.9 | 0.00 | 0.41 | 0.41 | 98 | 1013.7 |
| 20260507233004 | 50 | 0 | 0.0 | 0.0 | 0.00 | 0.41 | 0.41 | 98 | 1013.7 |
| 20260507232504 | 50 | 0 | 0.0 | 0.0 | 0.00 | 0.41 | 0.41 | 97 | 1013.8 |
| 20260507232004 | 51 | 0 | 0.0 | 0.0 | 0.00 | 0.41 | 0.41 | 97 | 1013.9 |
| 20260507231505 | 51 | 113 | 0.0 | 0.9 | 0.00 | 0.41 | 0.41 | 97 | 1013.9 |
| 20260507231004 | 51 | 113 | 0.0 | 0.9 | 0.00 | 0.41 | 0.41 | 97 | 1013.9 |
| 20260507230504 | 51 | 63 | 0.0 | 1.7 | 0.00 | 0.41 | 0.41 | 97 | 1014.0 |
| 20260507230005 | 51 | 57 | 0.0 | 1.7 | 0.00 | 0.41 | 0.41 | 97 | 1013.9 |
| 20260507225504 | 51 | 0 | 0.0 | 0.0 | 0.00 | 0.41 | 0.41 | 97 | 1013.8 |
| 20260507225005 | 51 | 116 | 0.0 | 0.9 | 0.00 | 0.41 | 0.41 | 97 | 1014.0 |
| 20260507224505 | 51 | 116 | 0.9 | 0.9 | 0.00 | 0.41 | 0.41 | 97 | 1014.0 |
| 20260507224004 | 51 | 116 | 0.0 | 0.9 | 0.00 | 0.41 | 0.41 | 97 | 1014.0 |
| 20260507223504 | 51 | 0 | 0.0 | 0.0 | 0.00 | 0.41 | 0.41 | 97 | 1014.0 |
| 20260507223004 | 51 | 0 | 0.0 | 0.0 | 0.00 | 0.41 | 0.41 | 97 | 1014.2 |
| 20260507222504 | 51 | 0 | 0.0 | 0.0 | 0.00 | 0.41 | 0.41 | 97 | 1014.2 |
| 20260507222004 | 51 | 107 | 0.0 | 0.9 | 0.00 | 0.41 | 0.41 | 97 | 1014.2 |
| 20260507221504 | 51 | 94 | 0.0 | 0.9 | 0.00 | 0.41 | 0.41 | 96 | 1014.2 |
| 20260507221004 | 51 | 83 | 0.0 | 0.9 | 0.00 | 0.41 | 0.41 | 96 | 1014.1 |
| 20260507220504 | 51 | 105 | 0.0 | 0.9 | 0.00 | 0.41 | 0.41 | 97 | 1014.3 |
| 20260507220004 | 51 | 0 | 0.0 | 0.0 | 0.00 | 0.41 | 0.41 | 96 | 1014.2 |
| 20260507215504 | 51 | 0 | 0.0 | 0.0 | 0.00 | 0.41 | 0.41 | 96 | 1014.3 |
| 20260507215004 | 51 | 0 | 0.0 | 0.0 | 0.00 | 0.41 | 0.41 | 96 | 1014.1 |
| 20260507214504 | 51 | 0 | 0.0 | 0.0 | 0.00 | 0.41 | 0.41 | 96 | 1014.1 |
| 20260507214004 | 51 | 0 | 0.0 | 0.0 | 0.00 | 0.41 | 0.41 | 95 | 1014.1 |
| 20260507213504 | 52 | 0 | 0.0 | 0.0 | 0.00 | 0.41 | 0.41 | 95 | 1014.0 |
| 20260507213004 | 52 | 0 | 0.0 | 0.0 | 0.01 | 0.41 | 0.41 | 94 | 1014.2 |
| 20260507212504 | 52 | 0 | 0.0 | 0.0 | 0.02 | 0.41 | 0.41 | 94 | 1014.2 |
| 20260507212004 | 52 | 0 | 0.0 | 0.0 | 0.03 | 0.41 | 0.41 | 93 | 1014.1 |
| 20260507211504 | 52 | 132 | 0.0 | 0.9 | 0.04 | 0.41 | 0.41 | 93 | 1014.1 |
| 20260507211004 | 52 | 132 | 0.0 | 0.9 | 0.05 | 0.41 | 0.41 | 93 | 1014.3 |
| 20260507210504 | 52 | 131 | 0.0 | 0.9 | 0.07 | 0.41 | 0.41 | 93 | 1014.3 |
| 20260507210005 | 52 | 124 | 0.0 | 1.7 | 0.09 | 0.41 | 0.41 | 93 | 1014.0 |
| 20260507205504 | 52 | 113 | 0.9 | 3.5 | 0.11 | 0.41 | 0.41 | 93 | 1014.1 |
| 20260507205004 | 52 | 94 | 1.7 | 3.5 | 0.12 | 0.41 | 0.41 | 94 | 1014.0 |
| 20260507204505 | 52 | 83 | 1.7 | 3.5 | 0.13 | 0.41 | 0.41 | 93 | 1013.8 |
| 20260507204004 | 52 | 80 | 1.7 | 3.5 | 0.13 | 0.41 | 0.41 | 93 | 1013.7 |
| 20260507203504 | 53 | 72 | 0.9 | 2.6 | 0.14 | 0.41 | 0.41 | 93 | 1013.7 |
| 20260507203004 | 52 | 322 | 0.9 | 2.6 | 0.14 | 0.41 | 0.41 | 93 | 1013.7 |
| 20260507202504 | 52 | 297 | 1.7 | 3.5 | 0.13 | 0.40 | 0.40 | 93 | 1013.5 |
| 20260507202004 | 52 | 280 | 2.6 | 3.5 | 0.12 | 0.39 | 0.39 | 93 | 1013.4 |
| 20260507201504 | 52 | 276 | 2.6 | 3.5 | 0.11 | 0.38 | 0.38 | 93 | 1013.6 |
| 20260507201004 | 52 | 273 | 2.6 | 3.5 | 0.09 | 0.36 | 0.36 | 91 | 1013.3 |
| 20260507200504 | 53 | 249 | 2.6 | 5.2 | 0.07 | 0.34 | 0.34 | 91 | 1013.5 |
| 20260507200004 | 53 | 226 | 2.6 | 6.1 | 0.06 | 0.32 | 0.32 | 89 | 1013.5 |
| 20260507195504 | 53 | 223 | 3.5 | 6.1 | 0.04 | 0.31 | 0.31 | 88 | 1013.4 |
| 20260507195004 | 54 | 225 | 3.5 | 7.0 | 0.02 | 0.29 | 0.29 | 88 | 1013.4 |
| 20260507194504 | 54 | 231 | 4.3 | 8.7 | 0.02 | 0.28 | 0.28 | 85 | 1013.2 |
| 20260507194004 | 55 | 228 | 4.3 | 8.7 | 0.01 | 0.28 | 0.28 | 83 | 1013.1 |
| 20260507193504 | 56 | 233 | 5.2 | 12.2 | 0.00 | 0.27 | 0.27 | 80 | 1012.9 |
| 20260507193004 | 58 | 230 | 4.3 | 12.2 | 0.00 | 0.27 | 0.27 | 70 | 1012.9 |
| 20260507192525 | 59 | 209 | 2.6 | 9.6 | 0.00 | 0.27 | 0.27 | 66 | 1012.8 |
| 20260507192004 | 60 | 197 | 0.9 | 3.5 | 0.00 | 0.27 | 0.27 | 63 | 1012.5 |
| 20260507191504 | 60 | 187 | 0.9 | 3.5 | 0.00 | 0.27 | 0.27 | 61 | 1012.4 |
| 20260507191025 | 60 | 217 | 0.9 | 1.7 | 0.00 | 0.27 | 0.27 | 60 | 1012.1 |
| 20260507190504 | 60 | 239 | 0.9 | 2.6 | 0.00 | 0.27 | 0.27 | 60 | 1011.8 |
| 20260507190005 | 60 | 254 | 0.9 | 2.6 | 0.00 | 0.27 | 0.27 | 60 | 1011.8 |
| 20260507185504 | 60 | 263 | 1.7 | 5.2 | 0.00 | 0.27 | 0.27 | 61 | 1011.7 |
| 20260507185004 | 60 | 260 | 2.6 | 7.0 | 0.00 | 0.27 | 0.27 | 60 | 1011.6 |
| 20260507184504 | 60 | 265 | 3.5 | 9.6 | 0.00 | 0.27 | 0.27 | 59 | 1011.7 |
| 20260507184004 | 61 | 269 | 3.5 | 9.6 | 0.00 | 0.27 | 0.27 | 60 | 1011.6 |
| 20260507183504 | 61 | 268 | 4.3 | 7.8 | 0.00 | 0.27 | 0.27 | 59 | 1011.3 |
| 20260507183004 | 61 | 269 | 4.3 | 7.8 | 0.00 | 0.27 | 0.27 | 59 | 1011.6 |
| 20260507182504 | 61 | 276 | 5.2 | 11.3 | 0.00 | 0.27 | 0.27 | 59 | 1011.4 |
| 20260507182004 | 61 | 280 | 5.2 | 11.3 | 0.00 | 0.27 | 0.27 | 59 | 1011.3 |
| 20260507181504 | 62 | 283 | 5.2 | 7.8 | 0.00 | 0.27 | 0.27 | 59 | 1011.2 |
| 20260507181004 | 62 | 284 | 5.2 | 8.7 | 0.00 | 0.27 | 0.27 | 59 | 1011.2 |
| 20260507180504 | 62 | 290 | 6.1 | 8.7 | 0.00 | 0.27 | 0.27 | 59 | 1011.3 |
| 20260507180026 | 62 | 290 | 6.1 | 13.0 | 0.00 | 0.27 | 0.27 | 59 | 1011.2 |
| 20260507175525 | 62 | 278 | 6.1 | 13.0 | 0.00 | 0.27 | 0.27 | 59 | 1011.2 |
| 20260507175004 | 63 | 274 | 7.0 | 13.0 | 0.00 | 0.27 | 0.27 | 58 | 1011.0 |
| 20260507174504 | 64 | 285 | 6.1 | 13.0 | 0.00 | 0.27 | 0.27 | 56 | 1011.2 |
| 20260507174004 | 65 | 310 | 3.5 | 7.8 | 0.00 | 0.27 | 0.27 | 55 | 1011.1 |
| 20260507173504 | 65 | 325 | 2.6 | 6.1 | 0.00 | 0.27 | 0.27 | 49 | 1010.8 |
| 20260507173004 | 66 | 321 | 2.6 | 7.0 | 0.00 | 0.27 | 0.27 | 49 | 1010.7 |
| 20260507172504 | 65 | 322 | 2.6 | 7.0 | 0.00 | 0.27 | 0.27 | 52 | 1010.8 |
| 20260507172025 | 65 | 330 | 3.5 | 7.8 | 0.00 | 0.27 | 0.27 | 54 | 1010.6 |
| 20260507171504 | 65 | 338 | 2.6 | 7.8 | 0.00 | 0.27 | 0.27 | 53 | 1010.7 |
| 20260507171004 | 64 | 355 | 1.7 | 5.2 | 0.00 | 0.27 | 0.27 | 54 | 1010.6 |
| 20260507170504 | 64 | 358 | 1.7 | 3.5 | 0.00 | 0.27 | 0.27 | 52 | 1010.7 |
| 20260507170004 | 63 | 2 | 1.7 | 6.1 | 0.00 | 0.27 | 0.27 | 54 | 1010.5 |
| 20260507165525 | 63 | 23 | 1.7 | 6.1 | 0.00 | 0.27 | 0.27 | 53 | 1010.6 |
| 20260507165025 | 64 | 47 | 2.6 | 8.7 | 0.00 | 0.27 | 0.27 | 54 | 1010.7 |
| 20260507164504 | 64 | 57 | 3.5 | 8.7 | 0.00 | 0.27 | 0.27 | 53 | 1010.7 |
| 20260507164004 | 64 | 62 | 2.6 | 8.7 | 0.00 | 0.27 | 0.27 | 56 | 1010.8 |
| 20260507163504 | 65 | 54 | 2.6 | 9.6 | 0.00 | 0.27 | 0.27 | 53 | 1010.7 |
| 20260507163004 | 64 | 56 | 4.3 | 12.2 | 0.00 | 0.27 | 0.27 | 57 | 1010.7 |
| 20260507162504 | 63 | 55 | 5.2 | 13.0 | 0.00 | 0.27 | 0.27 | 57 | 1010.8 |
| 20260507162004 | 63 | 52 | 4.3 | 13.0 | 0.00 | 0.27 | 0.27 | 55 | 1010.7 |
| 20260507161525 | 63 | 57 | 4.3 | 11.3 | 0.00 | 0.27 | 0.27 | 58 | 1010.7 |
| 20260507161004 | 63 | 63 | 5.2 | 13.9 | 0.00 | 0.27 | 0.27 | 60 | 1010.8 |
| 20260507160504 | 62 | 65 | 6.1 | 13.9 | 0.00 | 0.27 | 0.27 | 58 | 1010.9 |
| 20260507160005 | 62 | 66 | 6.1 | 13.9 | 0.00 | 0.27 | 0.27 | 57 | 1010.9 |
| 20260507155504 | 62 | 63 | 5.2 | 13.0 | 0.00 | 0.27 | 0.27 | 55 | 1011.0 |
| 20260507155004 | 62 | 59 | 4.3 | 13.0 | 0.00 | 0.27 | 0.27 | 55 | 1010.8 |
| 20260507154504 | 62 | 60 | 3.5 | 7.8 | 0.00 | 0.27 | 0.27 | 54 | 1010.9 |
| 20260507154004 | 63 | 48 | 3.5 | 7.0 | 0.00 | 0.27 | 0.27 | 58 | 1011.0 |
| 20260507153504 | 63 | 46 | 2.6 | 7.0 | 0.00 | 0.27 | 0.27 | 54 | 1011.0 |
| 20260507153004 | 62 | 47 | 2.6 | 7.8 | 0.00 | 0.27 | 0.27 | 56 | 1011.1 |
| 20260507152504 | 63 | 28 | 2.6 | 7.8 | 0.00 | 0.27 | 0.27 | 55 | 1011.1 |
| 20260507152004 | 62 | 15 | 2.6 | 7.0 | 0.00 | 0.27 | 0.27 | 58 | 1010.9 |
| 20260507151504 | 60 | 23 | 2.6 | 6.1 | 0.00 | 0.27 | 0.27 | 63 | 1011.2 |
| 20260507151004 | 60 | 44 | 1.7 | 6.1 | 0.00 | 0.27 | 0.27 | 61 | 1011.3 |
| 20260507150504 | 60 | 15 | 1.7 | 3.5 | 0.01 | 0.27 | 0.27 | 62 | 1011.5 |
| 20260507150005 | 59 | 331 | 1.7 | 3.5 | 0.02 | 0.27 | 0.27 | 65 | 1011.5 |
| 20260507145525 | 60 | 41 | 0.9 | 3.5 | 0.02 | 0.27 | 0.27 | 68 | 1011.6 |
| 20260507145004 | 59 | 67 | 1.7 | 3.5 | 0.02 | 0.27 | 0.27 | 60 | 1011.6 |
| 20260507144504 | 62 | 297 | 2.6 | 6.1 | 0.02 | 0.27 | 0.27 | 59 | 1011.8 |
| 20260507144004 | 61 | 253 | 3.5 | 7.8 | 0.02 | 0.27 | 0.27 | 45 | 1011.6 |
| 20260507143504 | 59 | 213 | 2.6 | 7.8 | 0.02 | 0.27 | 0.27 | 56 | 1011.8 |
| 20260507143025 | 59 | 190 | 2.6 | 8.7 | 0.02 | 0.27 | 0.27 | 62 | 1011.9 |
| 20260507142525 | 60 | 177 | 3.5 | 8.7 | 0.02 | 0.26 | 0.26 | 57 | 1011.7 |
| 20260507142004 | 58 | 156 | 2.6 | 8.7 | 0.02 | 0.26 | 0.26 | 65 | 1011.9 |
| 20260507141504 | 58 | 160 | 2.6 | 7.0 | 0.02 | 0.26 | 0.26 | 66 | 1011.8 |
| 20260507141004 | 58 | 160 | 2.6 | 7.8 | 0.02 | 0.26 | 0.26 | 68 | 1012.0 |
| 20260507140504 | 59 | 154 | 2.6 | 12.2 | 0.02 | 0.26 | 0.26 | 66 | 1012.2 |
| 20260507140004 | 62 | 137 | 0.9 | 12.2 | 0.01 | 0.24 | 0.24 | 62 | 1012.0 |
| 20260507135504 | 61 | 335 | 0.9 | 1.7 | 0.01 | 0.24 | 0.24 | 59 | 1011.7 |
| 20260507135004 | 61 | 350 | 0.9 | 6.1 | 0.02 | 0.24 | 0.24 | 65 | 1011.2 |
| 20260507134504 | 61 | 357 | 2.6 | 7.8 | 0.13 | 0.24 | 0.24 | 70 | 1011.4 |
| 20260507134004 | 61 | 349 | 4.3 | 7.8 | 0.24 | 0.24 | 0.24 | 65 | 1011.3 |
| 20260507133504 | 59 | 341 | 4.3 | 9.6 | 0.24 | 0.24 | 0.24 | 69 | 1011.2 |
| 20260507133004 | 58 | 344 | 4.3 | 9.6 | 0.24 | 0.24 | 0.24 | 73 | 1011.4 |
| 20260507132525 | 58 | 345 | 2.6 | 7.0 | 0.24 | 0.24 | 0.24 | 70 | 1011.5 |
| 20260507132004 | 59 | 313 | 2.6 | 5.2 | 0.24 | 0.24 | 0.24 | 66 | 1011.6 |
| 20260507131504 | 59 | 293 | 2.6 | 5.2 | 0.24 | 0.24 | 0.24 | 71 | 1011.7 |
| 20260507131004 | 57 | 294 | 1.7 | 5.2 | 0.24 | 0.24 | 0.24 | 69 | 1011.6 |
| 20260507130504 | 56 | 332 | 1.7 | 3.5 | 0.24 | 0.24 | 0.24 | 73 | 1011.5 |
| 20260507130004 | 56 | 24 | 1.7 | 6.1 | 0.24 | 0.24 | 0.24 | 79 | 1011.3 |
| 20260507125504 | 57 | 8 | 3.5 | 12.2 | 0.23 | 0.23 | 0.23 | 72 | 1011.4 |
| 20260507125004 | 54 | 90 | 6.1 | 20.9 | 0.22 | 0.22 | 0.22 | 71 | 1011.6 |
| 20260507124504 | 61 | 143 | 4.3 | 20.9 | 0.12 | 0.12 | 0.12 | 83 | 1012.7 |
| 20260507124004 | 65 | 226 | 1.7 | 3.5 | 0.00 | 0.00 | 0.00 | 53 | 1011.7 |
| 20260507123525 | 66 | 261 | 1.7 | 5.2 | 0.00 | 0.00 | 0.00 | 46 | 1011.5 |
| 20260507123004 | 65 | 281 | 1.7 | 5.2 | 0.00 | 0.00 | 0.00 | 47 | 1011.4 |
| 20260507122504 | 66 | 248 | 0.9 | 5.2 | 0.00 | 0.00 | 0.00 | 45 | 1011.4 |